Flag for Congo Dem.Rep. Weather past 2 weeks in Kinshasa, Congo Dem.Rep.

Now
90 °F

Passing clouds.


Feels Like: 95 °F
Forecast: 72 / 94 °F
Wind: 2 mph from North

Location: Brazzaville / Maya-Maya

Current Time: Jul 5, 2015 at 2:44:13 PM

Latest Report: Jul 5, 2015 at 2:00 PM


Visibility: 4 mi

Pressure: 29.89 "Hg

Humidity: 52%

Dew point: 70 °F

Location of KinshasaLocation

Historic Weather in Kinshasa — Graph

°F

Kinshasa temperature yesterday

Maximum temperature yesterday: 86 °F (at 3:00 PM)
Minimum temperature yesterday: 68 °F (at 4:00 AM)
Average temperature yesterday: 76 °F

Past Weeks' High & Low Weather Summary

 TemperatureHumidityPressure
High88 °F (Jul 5, 1:00 PM)94% (Jun 21, 6:00 AM)30.15 "Hg (Jun 21, 6:00 AM)
Low64 °F (Jun 28, 5:00 AM)51% (Jun 27, 4:00 PM)29.92 "Hg (Jun 20, 3:00 PM)
Average74 °F77%30.03 "Hg
* Reported Jun 20 1:00 PM — Jul 5 1:00 PM, Kinshasa, Weather by CustomWeather, © 2015

Note: Actual official high and low records may vary slightly from our data, if they occured in-between our weather recording intervals... More about our weather records

Advertising

Kinshasa weather history for previous 24 hours

 ConditionsComfort  
Time TempWeatherWind HumidityBarometerVisibility
1:00 PM
Sun, Jul 5
88 °FClear.5 mph55%29.92 "Hg4 mi
12:00 PM86 °FClear.5 mph59%29.95 "Hg4 mi
11:00 AM82 °FClear.6 mph66%29.98 "Hg4 mi
10:00 AM81 °FClear.5 mph70%30.01 "Hg4 mi
8:53 AM77 °FClear.5 mph74%30.04 "Hg4 mi
8:00 AM75 °FFog.3 mph83%30.04 "Hg3 mi
7:00 AM73 °FPartly sunny.2 mph89%30.01 "Hg4 mi
6:00 AM73 °FOvercast.No wind83%30.01 "Hg4 mi
5:00 AM73 °FPassing clouds.2 mph83%29.98 "Hg4 mi
4:00 AM73 °FPassing clouds.5 mph89%29.98 "Hg4 mi
3:00 AM73 °FClear.3 mph89%29.98 "Hg4 mi
2:00 AM75 °FPassing clouds.5 mph83%29.98 "Hg4 mi
1:00 AM75 °FFog.6 mph83%29.98 "Hg3 mi
12:00 AM73 °FHaze.5 mph89%30.01 "Hg2 mi
11:00 PM
Sat, Jul 4
77 °FClear.2 mph79%30.01 "Hg2 mi
10:00 PM77 °FHaze.3 mph79%29.98 "Hg2 mi
9:00 PM79 °FHaze.2 mph74%29.98 "Hg2 mi
8:00 PM79 °FFog.1 mph74%29.95 "Hg2 mi
7:00 PM81 °FHaze.2 mph70%29.95 "Hg2 mi
6:53 PM81 °FHaze.2 mph70%29.95 "Hg2 mi
6:00 PM82 °FClear.5 mph62%29.92 "Hg4 mi
5:00 PM84 °FClear.7 mph62%29.92 "Hg4 mi
4:00 PM84 °FPassing clouds.6 mph62%29.92 "Hg4 mi
3:00 PM86 °FClear.3 mph55%29.95 "Hg5 mi
2:00 PM84 °FClear.6 mph62%29.95 "Hg5 mi
Weather by CustomWeather, © 2015

See weather overviewHow to use our weather pages